Terminal Aerodrome Forecast
Issued by NWS Cleveland, OH

Home | Current Version | Previous Version | Graphics & Text | Print | Product List | Glossary On
Versions: 1 2 3 4 5 6 7 8 9 10 11 12 13 14 15 16 17 18 19 20 21 22 23 24 25 26 27 28 29 30 31 32 33 34 35
000
FTUS41 KCLE 171100
TAFCLE
TAF
KCLE 171133Z 1712/1818 01005KT P6SM VCSH SCT012 OVC025
     FM171600 01008KT P6SM BKN035
     FM172000 02006KT P6SM SCT035 SCT080
     FM180000 04003KT P6SM SCT250=

USA.gov is the U.S. government's official web portal to all federal, state and local government web resources and services.